Regional Weather Roundup
Issued by NWS

Home | Current Version | Previous Version | Graphics & Text | Print | Product List | Glossary On
Versions: 1 2 3 4 5 6 7 8 9 10 11 12 13 14 15 16 17 18 19 20 21 22 23 24 25 26 27 28 29 30 31 32 33 34 35 36 37 38 39 40 41 42 43 44 45 46 47 48 49 50
000
ASUS43 KLSX 261910
RWRMO

WEATHER SUMMARY FOR MISSOURI
NATIONAL WEATHER SERVICE SPRINGFIELD MO
100 PM CST SUN FEB 26 2017

NOTE: "FAIR" INDICATES FEW OR NO CLOUDS BELOW 12,000 FEET WITH NO
       SIGNIFICANT WEATHER AND/OR OBSTRUCTIONS TO VISIBILITY.
       CURRENT SKY AND/OR WEATHER CONDITIONS ARE NOT AVAILABLE FOR
       CHILLICOTHE AND FARMINGTON.

MOZ001>031-035>038-043-044-053-054-262000-
...NORTHERN AND WESTERN MISSOURI...

CITY           SKY/WX    TMP DP  RH WIND       PRES   REMARKS
KANSAS CTY INT PTSUNNY   47  28  47 S10       29.98F
KANSAS C DTWN  CLOUDY    51  25  36 S9        29.99F
LEE`S SUMMIT   CLOUDY    46  26  45 S13G18    30.00F
ST JOSEPH      SUNNY     51  30  44 SW13      29.96F
CHILLICOTHE      N/A     49  32  52 S10G21    30.00F
KIRKSVILLE     PTSUNNY   49  30  48 SW13G21   29.98F

$$
MOZ066>068-077>081-088>096-101>105-262000-
...SOUTHWEST MISSOURI...

CITY           SKY/WX    TMP DP  RH WIND       PRES   REMARKS
SPRINGFIELD    LGT RAIN  37  34  89 SE9       30.05F
JOPLIN         CLOUDY    40  38  93 E9        30.02F
BRANSON        CLOUDY    46  23  39 E5        30.06F

$$
MOZ032>034-039>042-045>050-055>058-069>072-262000-
...CENTRAL MISSOURI...

CITY           SKY/WX    TMP DP  RH WIND       PRES   REMARKS
COLUMBIA       CLOUDY    45  19  35 S10       30.05F
JEFFERSON CITY CLOUDY    46  18  32 S12       30.06F
ROLLA          CLOUDY    45  19  35 S14       30.06F
SEDALIA        CLOUDY    47  21  35 S10       30.04F
WHITEMAN AFB   CLOUDY    45  21  38 S10       30.02F
WARRENSBURG    CLOUDY    45  25  45 SE6       30.02F
OSAGE BEACH    CLOUDY    46  22  38 SW17      30.06F

$$
MOZ051-052-059>065-262000-
...EAST CENTRAL MISSOURI...

CITY           SKY/WX    TMP DP  RH WIND       PRES   REMARKS
ST LOUIS INTL  CLOUDY    45  15  30 S12       30.11F
SPIRIT OF STL  CLOUDY    46  15  28 S8        30.10F
ST CHARLES     CLOUDY    44  15  31 S12       30.10F

$$
MOZ072>076-082>087-097>100-106>115-262000-
...SOUTH CENTRAL AND SOUTHEAST MISSOURI...

CITY           SKY/WX    TMP DP  RH WIND       PRES   REMARKS
CAPE GIRARDEAU CLOUDY    49  21  33 S12       30.15F
FARMINGTON     CLOUDY    46  19  34 S10       30.11F
POPLAR BLUFF   CLOUDY    50  27  40 S10       30.14F
WEST PLAINS    CLOUDY    46  20  35 S8        30.09F

$$



USA.gov is the U.S. government's official web portal to all federal, state and local government web resources and services.